sat.trackr.live / text

‹ back to catalog

STARLINK-32925

NORAD 63091 · 2025-037Q

PAYLOAD ACTIVE UNKNOWN

§ Identity

Operator
Country
US
Launch date
2025-02-23
Launch site
AFWTR
Launch vehicle
Mass (kg)
RCS (m²)

Purposes: comms

External: N2YO · Heavens-Above · Gunter

§ Orbital elements

Epoch: 2026-05-25T02:42:50.196672Z

Period
96.11 min
Inclination
70.0005°
Eccentricity
0.0004345
Mean motion
14.98339787 rev/d
Perigee alt
569.0 km
Apogee alt
575.0 km
Semi-major
6,950.2 km
B*
3.9802e-4
RAAN
161.5988°
Arg perigee
263.4034°
Mean anomaly
96.6630°
Rev number
6,999

§ Raw data

STARLINK-329251 63091U 25037Q   26145.11308098  .00004661  00000+0  39802-3 0  99952 63091  70.0005 161.5988 0004345 263.4034  96.6630 14.98339787 69991

JSON: /api/v1/satellites/63091 · /tle

For live sub-satellite position, see the globe view (requires WebGL).

§ Visibility from observer

Set your observer location to see the next 7 days of passes ≥ 10°. The values pass through the URL so the page stays shareable.

No JS? Fill the form by hand. The geolocation button needs JavaScript.